Dewpoint
28 23 18 19 21 20 20 19 19 20 23 23 25 26 27 34 37 38 40 42 43 45 47 49 50 52 53 56 58 60 60 62 61 57 54 52 50 52 52 53 56 57 57 57
25 22 21 23 25 23 22 21 21 22 23 26 25 26 27 33 37 37 38 40 43 45 48 49 52 54 55 57 58 60 61 63 62 58 58 58 58 56 56 55 57 58 57 56
21 21 25 25 25 22 21 20 21 21 22 24 25 25 27 30 36 38 39 41 43 45 47 49 50 53 54 56 57 59 61 61 61 63 58 59 58 55 52 52 52 53 52 53
21 21 23 24 22 23 23 22 21 21 22 17 24 16 27 28 33 37 39 40 42 45 47 47 49 51 54 55 54 54 58 60 60 61 58 60 55 52 51 50 48 49 51 51
19 19 23 22 21 23 20 20 19 20 20 21 19 17 17 28 29 32 37 38 39 41 46 47 47 47 49 50 55 59 60 60 59 59 58 53 53 50 48 47 52 53 51 49
21 21 21 21 22 21 25 24 24 24 19 21 19 17 11 19 27 28 34 38 39 40 42 46 46 46 49 50 54 57 58 58 57 55 54 54 53 51 48 47 46 43 43 44
21 20 20 20 21 25 23 25 22 19 18 14 22 18 18 28 33 37 38 40 42 43 43 43 44 43 48 50 51 50 54 54 53 52 51 51 50 50 49 47 43 44 41 42
19 18 21 20 20 21 22 24 32 29 18 14 25 23 28 37 40 41 40 41 42 41 39 39 41 45 48 50 51 49 49 49 49 49 49 48 48 43 43 44 43 42 41 42
23 18 21 20 20 21 23 22 26 26 26 23 18 26 29 34 38 41 39 41 41 42 41 43 47 49 49 49 50 48 47 46 47 46 46 46 46 46 44 45 44 42 44 43
27 25 21 21 22 26 25 26 26 25 30 24 19 23 22 29 32 37 38 40 42 43 42 47 48 50 48 47 47 47 46 45 45 45 44 43 45 45 44 44 44 44 44 45
27 30 25 20 21 22 25 23 27 32 30 32 28 22 28 28 31 33 36 37 41 42 44 47 47 48 46 45 43 45 44 43 43 43 44 44 43 44 44 43 43 44 45 45
30 33 26 24 23 22 23 25 29 27 31 35 33 30 30 33 34 38 36 41 42 41 46 46 45 45 44 44 44 43 44 42 42 42 43 43 43 43 43 43 43 44 44 44
35 34 28 26 26 26 23 25 28 32 36 30 39 32 35 38 38 39 40 41 42 45 45 45 45 43 43 43 43 42 42 41 41 42 41 42 42 42 43 43 43 44 44 44
43 36 33 36 25 24 28 25 25 32 28 30 30 31 30 36 36 41 42 43 44 46 46 45 44 44 44 43 42 41 42 41 41 40 41 42 43 43 43 42 44 44 45 44
42 36 33 29 27 26 26 25 24 27 28 28 27 26 30 33 37 41 44 44 44 44 44 43 43 43 43 42 41 40 41 40 40 39 41 41 42 42 42 43 44 45 45 44
39 39 38 35 30 25 23 23 24 25 23 26 28 30 31 41 42 42 43 43 43 44 42 42 42 42 40 40 39 39 39 39 40 41 41 40 41 41 42 43 44 44 43 43
36 35 38 35 34 30 26 26 27 25 27 27 27 30 39 41 41 42 43 44 44 43 42 42 42 41 40 39 39 38 39 40 40 40 40 40 40 41 43 42 43 43 42 43
38 37 35 29 31 27 29 33 28 29 29 31 31 34 36 41 45 44 44 45 44 43 42 42 40 40 39 39 39 40 40 40 40 40 39 39 40 42 42 42 42 42 42 43
41 39 34 30 30 29 33 32 31 32 33 33 33 38 40 44 44 45 45 45 44 44 43 42 41 40 39 38 40 39 40 41 41 39 39 39 42 42 43 43 43 42 41 42
42 41 36 32 32 32 31 34 36 33 30 38 39 39 42 41 35 42 45 43 43 43 43 41 40 39 39 39 40 41 41 40 40 41 41 41 41 43 42 42 43 43 45 43
42 42 39 34 32 33 36 37 37 30 35 40 41 41 41 39 44 46 45 44 43 42 40 39 39 38 39 39 41 40 40 40 42 42 41 41 42 42 41 41 41 40 40 42
36 38 38 40 37 36 41 40 35 46 45 42 42 41 43 45 45 45 44 43 42 40 38 36 38 38 39 39 38 38 39 42 42 42 41 40 40 38 37 40 38 37 38 37
38 40 40 41 40 45 45 46 47 47 45 41 42 43 44 43 44 44 43 43 41 39 37 37 37 37 37 39 40 39 41 42 42 40 40 39 38 38 37 37 36 32 34 31
39 43 41 43 42 43 43 47 47 46 48 42 42 43 43 43 43 42 42 41 39 38 38 37 36 35 37 39 39 40 40 42 41 39 39 38 37 38 39 32 30 31 30 30
37 42 39 40 41 43 44 44 46 43 43 41 42 42 42 43 42 42 41 41 37 37 36 35 35 36 37 38 39 40 41 40 38 37 37 37 33 36 34 36 33 27 33 33
36 37 36 37 44 42 45 44 43 42 41 42 42 42 42 42 42 42 41 40 38 36 35 36 37 37 37 38 39 41 42 39 39 36 34 32 31 30 29 29 33 34 34 35
Lifted_Index
6 6 5 5 5 5 4 4 4 4 5 4 3 3 3 2 2 1 1 0 0 1 0 0 0 1 1 1 0 -0 -0 -1 -0 0 1 2 2 2 2 2 2 2 2 2
6 5 5 5 5 5 5 4 4 4 5 4 3 3 3 2 2 1 1 1 1 1 0 0 0 1 1 0 -0 -0 -1 -1 -0 0 1 1 1 1 2 2 2 2 3 3
5 5 5 5 5 5 5 4 4 4 4 4 3 3 3 3 2 1 1 1 1 0 0 0 1 1 0 0 -0 -0 -0 0 1 1 1 1 1 2 2 3 3 4 5 5
5 5 5 5 5 5 5 5 5 5 4 4 4 3 3 3 2 2 1 1 1 1 0 0 0 1 0 0 1 1 1 1 2 2 2 2 3 3 4 5 6 6 7 8
5 5 5 5 5 5 5 5 5 5 4 4 4 3 2 3 3 2 2 1 1 1 1 0 0 1 1 1 1 1 2 2 3 3 4 4 5 5 6 7 8 8 9 10
5 5 5 5 5 5 5 5 5 4 4 3 3 3 2 2 3 2 2 2 1 1 1 0 1 1 2 2 2 2 2 3 4 4 5 5 6 7 8 9 9 10 11 11
5 5 5 5 5 5 4 4 3 3 2 2 3 3 2 2 2 2 1 1 1 1 1 1 2 2 2 2 3 3 3 4 5 5 6 6 8 9 9 9 9 10 11 11
4 4 4 5 4 4 4 3 2 2 1 1 2 2 2 2 2 1 1 1 0 1 1 2 2 2 2 3 3 4 4 5 5 6 7 8 9 9 9 9 9 10 11 11
3 3 4 4 4 4 4 3 3 2 1 1 1 2 2 2 1 1 0 0 0 1 1 2 2 2 2 3 4 4 5 5 6 7 9 9 9 9 9 9 10 10 11 11
2 2 3 4 4 4 3 3 3 2 1 1 1 1 2 2 1 1 0 0 0 1 1 2 2 2 3 4 4 5 6 7 8 9 10 10 9 9 9 10 10 10 11 11
1 1 1 2 3 3 3 3 2 1 1 0 0 1 2 2 1 1 0 0 0 1 1 2 2 3 4 4 5 6 7 8 10 10 10 9 9 9 10 10 10 10 10 10
0 0 0 1 1 2 2 2 2 1 0 0 0 0 1 1 1 0 0 -0 0 1 1 2 3 4 4 5 6 7 8 10 11 11 10 9 9 9 9 9 9 10 10 10
-0 -1 -1 -0 0 1 1 1 1 0 0 -0 -0 0 0 1 0 0 0 0 1 1 2 3 4 4 5 6 6 8 9 11 11 10 10 9 9 9 9 9 9 9 9 10
-0 -1 -1 -1 -1 -0 0 1 1 0 -0 -0 -0 -0 0 0 0 0 1 1 1 2 2 3 4 5 6 6 8 9 10 11 11 11 10 10 10 10 10 10 10 10 10 10
-0 -1 -1 -1 -1 -1 -0 0 0 0 0 -0 -0 0 0 0 1 1 1 1 2 2 3 4 5 6 7 8 9 10 11 11 11 11 11 11 11 11 11 10 10 10 10 11
-0 -1 -1 -0 -0 -0 -0 0 0 0 0 0 0 0 0 1 1 1 1 2 2 3 4 5 6 7 8 9 10 11 11 11 11 11 11 11 11 11 11 11 11 11 11 11
-0 -1 -1 -0 0 0 -0 -0 0 1 0 0 0 0 0 1 1 1 2 2 3 4 5 6 7 8 9 10 11 11 11 11 12 12 12 12 12 12 11 11 11 11 11 11
-1 -1 -1 -1 -1 -1 -1 -0 0 0 0 0 0 0 0 1 1 2 2 3 4 5 6 7 8 9 10 11 12 12 12 12 12 12 12 12 12 12 12 11 11 12 11 11
-1 -1 -1 -1 -1 -1 -1 -0 -0 -0 -0 -0 0 0 1 1 2 2 3 4 5 6 7 8 9 10 11 12 12 12 12 13 13 13 13 13 13 13 12 12 12 12 12 11
-1 -1 -1 -1 -1 -1 -1 -1 -0 -0 -0 -0 -0 0 1 1 2 3 4 5 6 7 8 9 11 11 12 13 13 13 13 13 14 14 14 13 13 13 13 13 13 13 12 12
-1 -1 -1 -1 -1 -0 -0 -0 -0 -0 -0 -0 -0 1 1 2 2 3 5 6 7 8 9 11 11 12 12 13 14 14 14 14 14 14 13 13 13 13 14 14 14 14 13 13
-1 -1 -1 -0 -0 0 0 0 0 0 -0 -0 0 1 2 2 3 4 6 7 8 9 11 12 12 13 13 14 14 14 14 14 14 14 14 13 14 14 14 14 15 15 15 14
-1 -1 -1 -0 -0 0 0 1 1 1 1 1 1 2 2 3 4 5 6 8 9 10 11 12 13 13 14 14 14 14 14 14 14 14 14 14 14 14 15 15 16 16 16 16
-1 -1 -1 -0 -0 0 0 1 1 1 1 1 2 2 3 3 4 6 7 8 10 11 12 13 13 13 14 14 14 14 14 14 14 14 14 14 14 15 15 16 17 17 18 18
-0 -1 -1 -0 -0 0 1 1 1 1 2 2 2 3 3 4 5 6 7 9 10 11 12 13 13 13 13 14 13 13 13 14 14 14 14 14 14 15 15 16 17 18 19 19
-0 -0 -0 -0 -0 0 0 1 1 1 2 2 3 3 3 4 5 6 8 9 11 11 12 13 13 13 13 13 13 13 13 14 14 14 14 14 14 15 15 16 17 18 19 19